Regional Weather Roundup
Issued by NWS

Home | Current Version | Previous Version | Graphics & Text | Print | Product List | Glossary On
Versions: 1 2 3 4 5 6 7 8 9 10 11 12 13 14 15 16 17 18 19 20 21 22 23 24 25 26 27 28 29 30 31 32 33 34 35 36 37 38 39 40 41 42 43 44 45 46 47 48 49 50
000
ASUS45 KTFX 180804
RWRMT
MONTANA HOURLY WEATHER ROUNDUP
NATIONAL WEATHER SERVICE GREAT FALLS MT
204 AM MDT THU SEP 18 2014

NOTE: "FAIR" INDICATES FEW OR NO CLOUDS BELOW 12000 FEET WITH NO
SIGNIFICANT WEATHER AND/OR OBSTRUCTIONS TO VISIBILITY.

* THESE STATIONS ARE NOT UNDER NWS QUALITY CONTROL. THEY DO NOT
   REPORT WEATHER SUCH AS PRECIPITATION OR FOG.

MTZ001>007-043-180900-
WEST OF THE DIVIDE
CITY           SKY/WX    TMP DP  RH WIND       PRES   REMARKS
KALISPELL      MOCLDY    48  46  93 CALM      29.73S
MISSOULA       CLOUDY    57  46  67 CALM      29.77F
BUTTE          PTCLDY    46  37  71 SE3       29.94F
MULLAN PASS    MOCLDY    61  37  41 S7        29.89F
* ESSEX        N/A       54  47  77 E1         N/A
* LINCOLN      N/A       46  42  86 N/A        N/A
* LOOKOUT PASS N/A       58  42  55 S1         N/A
* POLSON       N/A       61  45  56 S1         N/A
* RONAN APT    MOCLDY    52  45  77 N/A        N/A
* SEELEY LAKE  N/A       47  41  80 N/A        N/A
* THOMP F APT  MOCLDY    65  37  36 N4G13      N/A
$$

MTZ008-052>055-180900-
SOUTHWEST MONTANA
CITY           SKY/WX    TMP DP  RH WIND       PRES   REMARKS
BOZEMAN        MOCLDY    54  45  72 CALM      29.88S
DILLON         MOCLDY    57  37  47 S9        29.92S
W YELLOWSTONE  PTCLDY    39  36  89 CALM      30.08S
* THREE FORKS  MOCLDY    52  52 100 N/A        N/A
* BOULDER HILL N/A       57  36  46 SW9        N/A
* MONIDA PASS  N/A       57  36  46 NW1        N/A
* RAYNOLDS PAS N/A       54  31  42 SE3        N/A
* WHITEHALL    N/A       53  43  69 N6         N/A
* WISE RIVER   N/A       46  36  68 W3         N/A
$$

MTZ009>010-012-014-046-048-049-054-180900-
EAST SLOPES AND CENTRAL MONTANA
CITY           SKY/WX    TMP DP  RH WIND       PRES   REMARKS
CUT BANK       CLOUDY    57  48  72 CALM      29.74F
GREAT FALLS    MOCLDY    66  43  43 S9        29.76S
HELENA         MOCLDY    61  48  62 CALM      29.82S
MALMSTROM AFB  MOCLDY    64  45  50 SW13      29.77S
* CONRAD       CLOUDY    55  54  96 N/A        N/A
* EAST GLACIER N/A       58  43  58 NW4        N/A
* MONARCH      N/A       57  35  44 S11        N/A
* PENDROY      N/A       62  47  58 W4         N/A
* SAINT MARY   N/A       49  44  83 SE3        N/A
* SWEET GRASS  N/A       63  47  56 S9G14      N/A
$$

MTZ011-013-016-021-035-040-045-047-050-051-180900-
NORTH CENTRAL MONTANA
CITY           SKY/WX    TMP DP  RH WIND       PRES   REMARKS
HAVRE          MOCLDY    55  52  90 SW3       29.68S
LEWISTOWN      PTCLDY    57  45  64 SE6       29.82F
* CHESTER      N/A       59  48  67 S1         N/A
* DENTON       N/A       62  44  52 SW5        N/A
* JUDITH GAP   N/A       54  48  80 S5         N/A
* LOMA         N/A       65  51  61 NE6        N/A
$$

MTZ017>020-022>027-061-062-180900-
NORTHEAST MONTANA
CITY           SKY/WX    TMP DP  RH WIND       PRES   REMARKS
GLASGOW        PTCLDY    57  46  67 E14       29.74F
GLENDIVE       PTCLDY    59  52  78 SE7       29.84F
JORDAN         MOCLDY    57  50  78 CALM      29.76S
SIDNEY         PTCLDY    54  48  80 S8        29.85F
WOLF POINT     CLEAR     54  45  72 NE7       29.78F
* BEAVER HILL  N/A       58  51  78 SE15G22    N/A
* CIRCLE       N/A       61  52  72 N/A        N/A
* LINDSAY DVD  N/A       53  50  90 E4         N/A
* NAVAJO       N/A       53  45  74 SE8        N/A
* SACO         N/A       58  49  72 E12        N/A
$$

MTZ028>042-056>058-180900-
SOUTHCENTRAL AND SOUTHEAST MONTANA
CITY           SKY/WX    TMP DP  RH WIND       PRES   REMARKS
BAKER          MOCLDY    57  50  78 SE15      29.87F
BILLINGS       MOCLDY    63  48  58 SW10      29.84F
LIVINGSTON     PTCLDY    55  43  64 SW3       29.89F
MILES CITY     PTCLDY    63  52  68 S10       29.79F
* LAUREL APT   PTCLDY    66  45  47 SW9        N/A
* ROUNDUP APT  PTCLDY    59  48  67 N/A        N/A
* ALZADA       N/A       53  50  90 E5         N/A
* HYSHAM       N/A       71  46  41 SE9G14     N/A
* LAME DEER    N/A       62  46  56 S6         N/A
* REED POINT   N/A       53  50  90 NE2        N/A
* ROSCOE HILL  N/A       64  32  30 W4         N/A
$$

REGIONAL REPORTS...DAKOTAS
CITY           SKY/WX    TMP DP  RH WIND       PRES   REMARKS
WILLISTON      PTCLDY    55  46  72 VRB3      29.85F
DICKINSON      PTCLDY    52  45  77 SE12      29.90F
BEACH          N/A       54  52  93 SE15G22   29.86F
CROSBY         CLEAR     46  46 100 SE7       29.87F
TIOGA          CLEAR     45  45 100 E6        29.92F
WATFORD CITY   CLEAR     54  46  74 SE5       29.85F
BISMARCK       CLEAR     48  45  89 NE7       29.97F
GRAND FORKS    CLEAR     37  37 100 N3        30.03F
FARGO          CLEAR     46  45  96 CALM      30.01R
BUFFALO SD     CLOUDY    57  50  78 SE12      29.84F
RAPID CITY     PTCLDY    55  52  90 CALM      29.94F
$$

REGIONAL REPORTS...WYOMING/IDAHO/WASHINGTON
CITY           SKY/WX    TMP DP  RH WIND       PRES   REMARKS
GILLETTE       CLEAR     63  48  58 S16       29.94F
SHERIDAN       PTCLDY    61  45  56 CALM      29.90F
CODY           PTCLDY   N/A N/A N/A N/A        N/A
YELLOWSTONE LA PTCLDY    41  37  86 CALM      30.18F
SALMON         CLOUDY    52  45  77 CALM      29.87R
MULLAN PASS    MOCLDY    61  37  41 S7        29.89S
SAND POINT     CLOUDY    50  50 100 CALM      29.68S
SPOKANE        CLOUDY    66  36  33 CALM      29.65F

$$



USA.gov is the U.S. government's official web portal to all federal, state and local government web resources and services.